Change the Weather History Date:

Sunday, March 3, 2013

  Actual Average Record
Temperature  
Mean Temperature 58 °F -  
Max Temperature 71 °F 65 °F 86 °F (1997)
Min Temperature 44 °F 39 °F 28 °F (1999)
Degree Days  
Heating Degree Days 8    
Growing Degree Days 8 (Base 50)    
Moisture  
Dew Point 41 °F    
Average Humidity 55    
Maximum Humidity 87    
Minimum Humidity 19    
Precipitation  
Precipitation 0.00 in 0.04 in - ()
Sea Level Pressure  
Sea Level Pressure 30.17 in    
Wind  
Wind Speed 6 mph ()    
Max Wind Speed 12 mph    
Max Gust Speed -    
Visibility 6.2 miles    
Events      
Averages and records for this station are not official NWS values.
T = Trace of Precipitation, MM = Missing Value Source: Averaged Metar Reports

Daily Weather History Graph

Daily Weather History Graph

Search for Another Location

Airport or City:

Trip Planner

Search our weather history database for the weather conditions in past years. The results will help you decide how hot, cold, wet, or windy it might be!

Date:

Astronomy

Mar. 03, 2013 Rise Set
Actual Time 7:28 AM ART 8:23 PM ART
Civil Twilight 7:00 AM ART 8:51 PM ART
Nautical Twilight 6:27 AM ART 9:24 PM ART
Astronomical Twilight 5:52 AM ART 9:59 PM ART
Moon 11:51 PM ART (3/3) 1:48 PM ART (3/3)
Length of Visible Light 13h 51m
Length of Day
12h 55m
Waning Gibbous, 64% of the Moon is Illuminated
Mar 3
Waning Gibbous
Mar 4
Last Quarter
Mar 11
New
Mar 19
First Quarter
Mar 27
Full

Hourly Weather History & Observations

Time (ART) Temp. Windchill Dew Point Humidity Pressure Visibility Wind Dir Wind Speed Gust Speed Precip Events Conditions
12:00 AM 50.0 °F - 44.6 °F 82% 30.18 in - SSE 10.4 mph - N/A   Clear
1:00 AM 50.0 °F - 42.8 °F 76% 30.18 in - SSE 9.2 mph - N/A   Clear
2:00 AM 48.2 °F - 41.0 °F 76% 30.18 in - Calm Calm - N/A   Clear
3:00 AM 46.4 °F 42.4 °F 42.8 °F 87% 30.18 in - SSE 8.1 mph - N/A   Clear
4:00 AM 46.4 °F 41.1 °F 41.0 °F 81% 30.18 in - SE 11.5 mph - N/A   Clear
5:00 AM 44.6 °F 39.2 °F 39.2 °F 81% 30.18 in - SSE 10.4 mph - N/A   Clear
6:00 AM 44.6 °F 40.7 °F 39.2 °F 81% 30.18 in - SSE 6.9 mph - N/A   Clear
7:00 AM 44.6 °F 39.2 °F 39.2 °F 81% 30.18 in 6.2 mi SSE 10.4 mph - N/A   Partly Cloudy
9:00 AM 49 °F - 42 °F 69%  in 6 mi SE 6.9 mph - -   Scattered Clouds
9:00 AM 50.0 °F - 42.8 °F 76% 30.21 in 6.2 mi SE 6.9 mph - N/A   Partly Cloudy
10:00 AM 51.8 °F - 41.0 °F 67% 30.21 in 6.2 mi SE 5.8 mph - N/A   Partly Cloudy
11:00 AM 60.8 °F - 46.4 °F 59% 30.21 in 6.2 mi Variable 2.3 mph - N/A   Scattered Clouds
12:00 PM 64.4 °F - 46.4 °F 52% 30.21 in 6.2 mi NE 4.6 mph - N/A   Scattered Clouds
1:00 PM 66.2 °F - 46.4 °F 49% 30.21 in 6.2 mi Variable 2.3 mph - N/A   Scattered Clouds
2:00 PM 68.0 °F - 39.2 °F 35% 30.18 in 6.2 mi Variable 3.5 mph - N/A   Scattered Clouds
3:00 PM 69 °F - 40 °F 24%  in 6 mi NE 9.2 mph - -   Partly Cloudy
3:00 PM 69.8 °F - 41.0 °F 35% 30.15 in 6.2 mi NE 9.2 mph - N/A   Partly Cloudy
4:00 PM 69.8 °F - 39.2 °F 33% 30.15 in 6.2 mi Variable 2.3 mph - N/A   Scattered Clouds
5:00 PM 69.8 °F - 41.0 °F 35% 30.12 in 6.2 mi Variable 2.3 mph - N/A   Scattered Clouds
6:00 PM 69.8 °F - 41.0 °F 35% 30.12 in 6.2 mi SW 4.6 mph - N/A   Scattered Clouds
7:00 PM 71.6 °F - 37.4 °F 29% 30.12 in 6.2 mi North 3.5 mph - N/A   Scattered Clouds
8:00 PM 69.8 °F - 37.4 °F 31% 30.12 in 6.2 mi North 4.6 mph - N/A   Scattered Clouds
9:00 PM 68 °F - 36 °F 19%  in 6 mi Calm Calm - -   Scattered Clouds
9:00 PM 68.0 °F - 35.6 °F 30% 30.12 in 6.2 mi Calm Calm - N/A   Partly Cloudy
10:00 PM 60.8 °F - 39.2 °F 45% 30.15 in - SE 9.2 mph - N/A   Clear
11:00 PM 53.6 °F - 39.2 °F 58% 30.15 in - South 10.4 mph - N/A   Clear